Home   Weather   Saint-Étienne   Past weeks

Flag for France Past Weather in Saint-Étienne, Rhône-Alpes, France — Yesterday and Last 2 Weeks

Now
25 °F

Ice fog.


Feels Like: 25 °F
Forecast: 31 / 49 °F
Wind: 1 mph from North

Location: St-Etienne Boutheon

Current Time: Dec 7, 2016 at 9:40:45 am

Latest Report: Dec 7, 2016 at 9:00 am


Visibility: 3 mi

Pressure: 30.45 "Hg (28.47 "Hg at 529m altitude)

Humidity: 93%

Dew Point: 23 °F

Location of Saint-ÉtienneLocation

Past Weather in Saint-Étienne — Graph

°F

Saint-Étienne Temperature Yesterday

Maximum temperature yesterday: 52 °F (at 3:00 pm)
Minimum temperature yesterday: 30 °F (at 6:00 am)
Average temperature yesterday: 38 °F

High & Low Weather Summary for the Past Weeks

 TemperatureHumidityPressure
High61 °F (Nov 23, 2:00 am)100% (Nov 22, 10:00 am)30.54 "Hg (Nov 22, 10:00 am)
Low23 °F (Dec 1, 8:00 am)54% (Dec 4, 2:00 pm)29.77 "Hg (Nov 25, 2:00 am)
Average40 °F85%30.12 "Hg
* Reported Nov 22 8:00 am — Dec 7 8:30 am, Saint-Étienne, Weather by CustomWeather, © 2016

Note: Actual official high and low records may vary slightly from our data, if they occured in-between our weather recording intervals... More about our weather records

Advertising

Saint-Étienne Weather History for the Previous 24 Hours

Scroll right to see more
 ConditionsComfort  
Time TempWeatherWind HumidityBarometerVisibility
8:30 am
Wed, Dec 7
23 °FIce fog.No wind93%30.45 "Hg1 mi
8:00 am25 °FIce fog.No wind93%30.45 "Hg1 mi
7:30 am25 °FIce fog.No wind93%30.45 "Hg3 mi
7:00 am25 °FIce fog.No wind93%30.45 "Hg2 mi
6:30 am25 °FIce fog.2 mph93%30.45 "Hg2 mi
6:00 am27 °FIce fog.1 mph93%30.45 "Hg3 mi
5:30 am27 °FIce fog.No wind100%30.45 "Hg1 mi
5:00 am27 °FIce fog.2 mph93%30.45 "Hg0 mi
4:30 am28 °FIce fog.No wind93%30.45 "Hg1 mi
4:00 am28 °FIce fog.No wind93%30.48 "Hg1 mi
3:30 am28 °FPartly cloudy.No wind93%30.45 "Hg1 mi
3:00 am28 °FIce fog.No wind93%30.48 "Hg1 mi
2:30 am28 °FIce fog.No wind93%30.45 "Hg1 mi
2:00 am28 °FIce fog.No wind93%30.45 "Hg0 mi
1:30 am30 °FIce fog.No wind93%30.45 "Hg0 mi
1:00 am28 °FIce fog.No wind93%30.45 "Hg0 mi
12:30 am30 °FIce fog.No wind86%30.45 "Hg0 mi
12:00 am30 °FLight fog.No wind93%30.45 "Hg1 mi
11:30 pm
Tue, Dec 6
32 °FFog.No wind93%30.42 "Hg1 mi
11:00 pm32 °FIce fog.1 mph100%30.42 "Hg1 mi
10:30 pm32 °FLight fog.1 mph93%30.42 "Hg1 mi
10:00 pm32 °FClear.No wind93%30.42 "Hg4 mi
9:30 pm34 °FFog.No wind93%30.42 "Hg2 mi
9:00 pm34 °FFog.1 mph93%30.42 "Hg2 mi
8:30 pm36 °FFog.2 mph87%30.42 "Hg2 mi
8:00 pm36 °FFog.No wind87%30.42 "Hg3 mi
7:00 pm37 °FClear.3 mph87%30.39 "Hg4 mi
6:30 pm39 °FClear.1 mph87%30.39 "Hg4 mi
6:00 pm39 °FClear.2 mph87%30.39 "Hg6 mi
5:30 pm43 °FClear.No wind76%30.39 "Hg10 mi
5:00 pm46 °FClear.No wind71%30.39 "Hg10 mi
4:30 pm48 °FSunny.2 mph66%30.39 "Hg10 mi
4:00 pm50 °FPassing clouds.3 mph67%30.39 "HgN/A
3:30 pm50 °FSunny.3 mph67%30.36 "Hg10 mi
3:00 pm52 °FSunny.No wind62%30.36 "Hg10 mi
2:30 pm48 °FSunny.No wind71%30.36 "Hg10 mi
2:00 pm48 °FSunny.3 mph71%30.36 "Hg10 mi
1:30 pm50 °FSunny.2 mph67%30.36 "Hg10 mi
1:00 pm46 °FSunny.2 mph71%30.36 "Hg10 mi
12:30 pm46 °FSunny.2 mph71%30.39 "Hg10 mi
12:00 pm45 °FSunny.2 mph76%30.39 "Hg10 mi
11:30 am43 °FSunny.No wind81%30.39 "Hg10 mi
11:00 am43 °FSunny.No wind81%30.39 "Hg10 mi
10:30 am37 °FSunny.No wind93%30.39 "Hg10 mi
10:00 am36 °FClear.No wind93%30.39 "Hg5 mi
9:30 am34 °FFog.No wind100%30.39 "Hg2 mi
9:00 am30 °FIce fog.No wind100%30.36 "Hg2 mi
Weather by CustomWeather, © 2016

See weather overviewHow to use our weather pages